When you browse on this site, cookies collect data to enhance your experience and personalize the content and advertising you see.
Visit our Privacy Policy to learn more. By continuing to use the site, you agree to this use of cookies and data.
  • en Suisse
  • Liste des pays
  • À 7 jours
  • Température de l'eau
  • Carte satellitaire
  • Carte météo
  • Widgets météo
  • user-avatar
    Se connecter

    Météo par heure à Andorre-la-Vieille

    Ce jour, 26 Juin, Mercredi

    Heure Température Précipitation Vent Pression Humidité
    00:00 +16°C° 0 mm 2 m/s 629 mmHg 49%
    01:00 +16°C° 0 mm 2 m/s 629 mmHg 46%
    02:00 +16°C° 0 mm 2 m/s 629 mmHg 43%
    03:00 +16°C° 0 mm 2 m/s 629 mmHg 39%
    04:00 +17°C° 0 mm 2 m/s 629 mmHg 40%
    05:00 +18°C° 0 mm 2 m/s 630 mmHg 41%
    06:00 +19°C° 0 mm 2 m/s 630 mmHg 42%
    07:00 +23°C° 0 mm 2 m/s 631 mmHg 36%
    08:00 +25°C° 0 mm 3 m/s 632 mmHg 30%
    09:00 +28°C° 0 mm 3 m/s 633 mmHg 24%
    10:00 +29°C° 0 mm 4 m/s 633 mmHg 23%
    11:00 +30°C° 0 mm 4 m/s 634 mmHg 22%
    12:00 +30°C° 0 mm 4 m/s 634 mmHg 21%
    13:00 +30°C° 0 mm 4 m/s 634 mmHg 22%
    14:00 +30°C° 0 mm 4 m/s 634 mmHg 23%
    15:00 +30°C° 0 mm 4 m/s 633 mmHg 24%
    16:00 +29°C° 0 mm 3 m/s 633 mmHg 30%
    17:00 +27°C° 0 mm 2 m/s 632 mmHg 37%
    18:00 +26°C° 0 mm 2 m/s 632 mmHg 44%
    19:00 +24°C° 0 mm 2 m/s 631 mmHg 45%
    20:00 +21°C° 0 mm 2 m/s 631 mmHg 47%
    21:00 +18°C° 0 mm 2 m/s 630 mmHg 48%
    22:00 +18°C° 0 mm 2 m/s 630 mmHg 43%
    23:00 +18°C° 0 mm 2 m/s 630 mmHg 38%

    Demain, 27 Juin, Jeudi

    Heure Température Précipitation Vent Pression Humidité
    00:00 +18°C° 0 mm 2 m/s 631 mmHg 34%
    01:00 +18°C° 0 mm 2 m/s 630 mmHg 32%
    02:00 +18°C° 0 mm 2 m/s 630 mmHg 30%
    03:00 +18°C° 0 mm 2 m/s 630 mmHg 28%
    04:00 +19°C° 0 mm 2 m/s 631 mmHg 31%
    05:00 +20°C° 0 mm 2 m/s 631 mmHg 33%
    06:00 +22°C° 0 mm 1 m/s 631 mmHg 36%
    07:00 +24°C° 0 mm 1 m/s 632 mmHg 31%
    08:00 +27°C° 0 mm 1 m/s 634 mmHg 26%
    09:00 +30°C° 0 mm 1 m/s 635 mmHg 21%
    10:00 +31°C° 0 mm 1 m/s 635 mmHg 19%
    11:00 +32°C° 0 mm 2 m/s 635 mmHg 18%
    12:00 +34°C° 0 mm 2 m/s 635 mmHg 16%
    13:00 +32°C° 0 mm 2 m/s 635 mmHg 17%
    14:00 +32°C° 0 mm 2 m/s 634 mmHg 17%
    15:00 +32°C° 0 mm 2 m/s 634 mmHg 18%
    16:00 +31°C° 0 mm 2 m/s 633 mmHg 25%
    17:00 +29°C° 0 mm 1 m/s 632 mmHg 32%
    18:00 +28°C° 0 mm 1 m/s 632 mmHg 39%
    19:00 +25°C° 0 mm 1 m/s 631 mmHg 40%
    20:00 +23°C° 0 mm 1 m/s 630 mmHg 41%
    21:00 +21°C° 0 mm 1 m/s 630 mmHg 42%
    22:00 +21°C° 0 mm 1 m/s 630 mmHg 39%
    23:00 +20°C° 0 mm 1 m/s 629 mmHg 37%

    Après-demain, 28 Juin, Vendredi

    Heure Température Précipitation Vent Pression Humidité
    00:00 +19°C° 0 mm 2 m/s 629 mmHg 35%
    01:00 +19°C° 0 mm 2 m/s 629 mmHg 35%
    02:00 +19°C° 0 mm 2 m/s 629 mmHg 34%
    03:00 +19°C° 0 mm 2 m/s 628 mmHg 34%
    04:00 +19°C° 0 mm 2 m/s 629 mmHg 35%
    05:00 +20°C° 0 mm 2 m/s 629 mmHg 36%
    06:00 +20°C° 0 mm 2 m/s 629 mmHg 38%
    07:00 +24°C° 0 mm 2 m/s 630 mmHg 32%
    08:00 +27°C° 0 mm 1 m/s 631 mmHg 26%
    09:00 +30°C° 0 mm 1 m/s 632 mmHg 20%
    10:00 +31°C° 0 mm 1 m/s 632 mmHg 19%
    11:00 +32°C° 0 mm 1 m/s 632 mmHg 18%
    12:00 +32°C° 0 mm 2 m/s 632 mmHg 17%
    13:00 +32°C° 0 mm 2 m/s 632 mmHg 19%
    14:00 +32°C° 0 mm 2 m/s 632 mmHg 20%
    15:00 +32°C° 0 mm 2 m/s 631 mmHg 21%
    16:00 +30°C° 0 mm 2 m/s 630 mmHg 29%
    17:00 +28°C° 0 mm 1 m/s 630 mmHg 37%
    18:00 +27°C° 0 mm 1 m/s 629 mmHg 46%
    19:00 +25°C° 0 mm 1 m/s 629 mmHg 46%
    20:00 +23°C° 0 mm 1 m/s 628 mmHg 46%
    21:00 +21°C° 0 mm 1 m/s 628 mmHg 47%
    22:00 +21°C° 0 mm 1 m/s 628 mmHg 45%
    23:00 +21°C° 0 mm 1 m/s 627 mmHg 42%

    29 Juin, Samedi

    Heure Température Précipitation Vent Pression Humidité
    00:00 +20°C° 0 mm 1 m/s 627 mmHg 40%
    01:00 +20°C° 0 mm 1 m/s 627 mmHg 39%
    02:00 +20°C° 0 mm 1 m/s 627 mmHg 38%
    03:00 +20°C° 0 mm 1 m/s 627 mmHg 37%
    04:00 +21°C° 0 mm 1 m/s 627 mmHg 39%
    05:00 +21°C° 0 mm 1 m/s 627 mmHg 41%
    06:00 +22°C° 0 mm 1 m/s 628 mmHg 44%
    07:00 +24°C° 0 mm 1 m/s 629 mmHg 37%
    08:00 +27°C° 0 mm 1 m/s 630 mmHg 30%
    09:00 +30°C° 0 mm 1 m/s 631 mmHg 24%
    10:00 +30°C° 0 mm 1 m/s 631 mmHg 23%
    11:00 +31°C° 0 mm 2 m/s 632 mmHg 22%
    12:00 +32°C° 0 mm 2 m/s 632 mmHg 21%
    13:00 +31°C° 0 mm 2 m/s 631 mmHg 23%
    14:00 +31°C° 0 mm 2 m/s 631 mmHg 25%
    15:00 +30°C° 0 mm 3 m/s 631 mmHg 28%
    16:00 +28°C° 0.1 mm 2 m/s 630 mmHg 36%
    17:00 +27°C° 0.1 mm 2 m/s 630 mmHg 45%
    18:00 +25°C° 0.1 mm 1 m/s 629 mmHg 54%
    19:00 +23°C° 0.1 mm 1 m/s 629 mmHg 58%
    20:00 +22°C° 0.1 mm 1 m/s 629 mmHg 61%
    21:00 +20°C° 0.1 mm 1 m/s 629 mmHg 64%
    22:00 +20°C° 0 mm 1 m/s 629 mmHg 60%
    23:00 +20°C° 0 mm 1 m/s 629 mmHg 56%

    30 Juin, Dimanche

    Heure Température Précipitation Vent Pression Humidité
    00:00 +19°C° 0 mm 1 m/s 629 mmHg 53%
    01:00 +19°C° 0 mm 1 m/s 628 mmHg 52%
    02:00 +19°C° 0 mm 1 m/s 628 mmHg 51%
    03:00 +19°C° 0 mm 1 m/s 628 mmHg 51%
    04:00 +20°C° 0 mm 1 m/s 629 mmHg 51%
    05:00 +21°C° 0 mm 1 m/s 629 mmHg 51%
    06:00 +22°C° 0 mm 1 m/s 630 mmHg 51%
    07:00 +24°C° 0 mm 1 m/s 631 mmHg 43%
    08:00 +27°C° 0 mm 1 m/s 632 mmHg 35%
    09:00 +29°C° 0 mm 1 m/s 633 mmHg 27%
    10:00 +30°C° 0 mm 2 m/s 633 mmHg 25%
    11:00 +31°C° 0 mm 2 m/s 633 mmHg 23%
    12:00 +32°C° 0 mm 2 m/s 633 mmHg 22%
    13:00 +30°C° 0.1 mm 2 m/s 632 mmHg 26%
    14:00 +29°C° 0.1 mm 2 m/s 631 mmHg 30%
    15:00 +28°C° 0.1 mm 3 m/s 631 mmHg 35%
    16:00 +26°C° 0.8 mm 3 m/s 630 mmHg 44%
    17:00 +22°C° 0.8 mm 3 m/s 629 mmHg 54%
    18:00 +20°C° 0.8 mm 3 m/s 628 mmHg 63%
    19:00 +19°C° 0 mm 2 m/s 628 mmHg 59%
    20:00 +18°C° 0 mm 2 m/s 628 mmHg 54%
    21:00 +18°C° 0 mm 2 m/s 628 mmHg 50%
    22:00 +19°C° 0 mm 1 m/s 628 mmHg 49%
    23:00 +19°C° 0 mm 1 m/s 628 mmHg 48%

    1 Juillet, Lundi

    Heure Température Précipitation Vent Pression Humidité
    00:00 +19°C° 0 mm 1 m/s 628 mmHg 46%
    01:00 +18°C° 0 mm 1 m/s 628 mmHg 48%
    02:00 +18°C° 0 mm 1 m/s 628 mmHg 49%
    03:00 +18°C° 0 mm 1 m/s 627 mmHg 50%
    04:00 +19°C° 0 mm 1 m/s 628 mmHg 53%
    05:00 +20°C° 0 mm 1 m/s 628 mmHg 56%
    06:00 +21°C° 0 mm 1 m/s 629 mmHg 59%
    07:00 +23°C° 0 mm 1 m/s 630 mmHg 51%
    08:00 +25°C° 0 mm 1 m/s 631 mmHg 42%
    09:00 +27°C° 0 mm 2 m/s 631 mmHg 34%
    10:00 +28°C° 0 mm 2 m/s 632 mmHg 32%
    11:00 +29°C° 0 mm 2 m/s 632 mmHg 30%
    12:00 +30°C° 0 mm 3 m/s 632 mmHg 28%
    13:00 +29°C° 0.1 mm 3 m/s 631 mmHg 31%
    14:00 +29°C° 0.1 mm 3 m/s 631 mmHg 33%
    15:00 +28°C° 0.1 mm 3 m/s 631 mmHg 36%
    16:00 +27°C° 0.4 mm 2 m/s 630 mmHg 45%
    17:00 +25°C° 0.4 mm 2 m/s 629 mmHg 53%
    18:00 +24°C° 0.4 mm 1 m/s 629 mmHg 62%
    19:00 +22°C° 0.1 mm 1 m/s 628 mmHg 71%
    20:00 +20°C° 0.1 mm 1 m/s 628 mmHg 79%
    21:00 +18°C° 0.1 mm 1 m/s 628 mmHg 87%
    22:00 +16°C° 0.1 mm 1 m/s 627 mmHg 88%
    23:00 +16°C° 0.1 mm 1 m/s 627 mmHg 88%
    Voir plus